EW1015 Weather Reports


Display with metric or nautical units.
time (UTC)temp
F
wind
direction
speed
MPH
gust
MPH
rain 1hr
in
rain 24hr
in
rain mn
in
humidity
%
barometer
mb
20260901174518 80 298 6.0 9.0 0.00 0.51 0.08 2 1014.9
20260901173002 80 340 5.0 12.0 0.00 0.51 0.08 2 1014.7
20260901171559 79 300 3.0 8.0 0.00 0.51 0.08 100 1014.7
20260901170053 80 276 5.0 12.0 0.00 0.51 0.08 100 1014.7
20260901164547 81 269 4.0 10.0 0.00 0.52 0.08 6 1014.6
20260901163043 80 307 5.0 11.0 0.00 0.52 0.08 100 1014.5
20260901161553 79 266 4.0 12.0 0.00 0.52 0.08 100 1014.6
20260901160058 78 315 3.0 10.0 0.00 0.52 0.08 100 1014.6
20260901154533 78 305 4.0 10.0 0.01 0.52 0.08 100 1014.7
20260901153026 77 308 3.0 10.0 0.01 0.52 0.08 100 1014.8
20260901151524 76 253 3.0 10.0 0.01 0.52 0.08 100 1014.9
20260901150021 75 284 4.0 10.0 0.01 0.52 0.08 100 1015.0
20260901144511 75 335 2.0 6.0 0.00 0.56 0.07 100 1014.9
20260901143007 74 273 1.0 3.0 0.00 0.56 0.07 100 1014.7
20260901141502 73 306 1.0 2.0 0.00 0.56 0.07 100 1014.8
20260901140059 72 324 1.0 2.0 0.00 0.56 0.07 100 1014.7
20260901134555 72 334 0.0 0.0 0.00 0.69 0.07 100 1014.6
20260901133052 71 334 0.0 1.0 0.00 0.69 0.07 100 1014.6
20260901131550 71 341 0.0 2.0 0.00 0.69 0.07 100 1014.8
20260901130040 71 284 0.0 2.0 0.00 0.69 0.07 100 1014.8
20260901124537 71 96 0.0 1.0 0.00 0.69 0.07 100 1014.9
20260901123044 70 96 0.0 1.0 0.00 0.69 0.07 100 1014.8
20260901121528 69 109 0.0 3.0 0.00 0.69 0.07 100 1014.8
20260901120034 69 173 0.0 0.0 0.00 0.69 0.07 100 1014.7
20260901114507 69 130 0.0 1.0 0.00 0.69 0.07 100 1014.8
20260901113002 69 157 0.0 1.0 0.00 0.69 0.07 100 1014.6
20260901111607 69 157 0.0 1.0 0.01 0.69 0.07 100 1014.5
20260901110052 68 69 0.0 2.0 0.01 0.69 0.07 100 1014.3
20260901104550 68 196 0.0 2.0 0.02 0.69 0.07 100 1014.4
20260901103044 68 144 1.0 2.0 0.02 0.69 0.07 100 1014.4
20260901101540 68 236 0.0 2.0 0.01 0.68 0.06 100 1014.5
20260901100036 67 226 0.0 2.0 0.01 0.68 0.06 100 1014.8
20260901094531 67 65 2.0 3.0 0.00 0.67 0.05 100 1014.4
20260901093027 67 139 1.0 3.0 0.00 0.67 0.05 100 1014.7
20260901091522 67 17 0.0 2.0 0.02 0.67 0.05 100 1014.4
20260901090017 67 86 0.0 2.0 0.02 0.67 0.05 100 1014.5
20260901084513 68 310 1.0 3.0 0.02 0.67 0.05 100 1014.6
20260901083008 67 135 0.0 3.0 0.02 0.67 0.05 100 1014.4
20260901081504 67 154 0.0 2.0 0.00 0.65 0.03 100 1014.8
20260901080100 67 242 0.0 3.0 0.00 0.65 0.03 100 1014.8
20260901074558 67 285 1.0 3.0 0.00 0.65 0.03 100 1014.9
20260901073054 67 140 0.0 0.0 0.00 0.65 0.03 100 1015.2
20260901071550 68 140 0.0 1.0 0.00 0.65 0.03 100 1015.5
20260901070049 68 240 0.0 2.0 0.00 0.65 0.03 100 1015.8
20260901064541 68 113 0.0 1.0 0.00 0.65 0.03 100 1016.0
20260901063048 68 113 0.0 1.0 0.02 0.65 0.03 100 1016.1
20260901061532 68 123 0.0 2.0 0.03 0.65 0.03 100 1016.0
20260901060027 68 112 0.0 2.0 0.03 0.65 0.03 100 1016.4
20260901054523 68 202 0.0 2.0 0.03 0.65 0.03 100 1016.6
20260901053023 67 169 0.0 1.0 0.00 0.62 0.00 100 1016.7
20260901051515 67 169 0.0 1.0 0.00 0.62 0.00 100 1016.6
20260901050010 67 225 0.0 2.0 0.00 0.62 0.00 100 1016.8
20260901044508 68 29 0.0 2.0 0.00 0.62 0.00 100 1016.7
20260901043001 68 168 0.0 0.0 0.00 0.62 0.00 100 1016.7
20260901041558 68 168 1.0 2.0 0.00 0.62 0.00 100 1016.8
20260901040053 68 32 0.0 2.0 0.00 0.62 0.00 100 1016.9
20260901034548 68 281 0.0 0.0 0.00 0.62 0.62 100 1016.8
20260901033043 68 281 0.0 1.0 0.00 0.62 0.62 100 1017.1
20260901031540 68 281 0.0 0.0 0.00 0.62 0.62 100 1017.2
20260901030034 69 265 0.0 0.0 0.00 0.62 0.62 100 1017.2
20260901024532 69 283 0.0 1.0 0.00 0.62 0.62 100 1017.5
20260901023036 68 214 0.0 0.0 0.00 0.62 0.62 100 1017.6
20260901021522 69 182 0.0 0.0 0.00 0.62 0.62 100 1017.5
20260901020016 69 182 0.0 0.0 0.00 0.62 0.62 100 1017.7
20260901014513 68 182 0.0 0.0 0.00 0.62 0.62 100 1017.7
20260901013012 69 182 0.0 0.0 0.00 0.62 0.62 100 1017.5
20260901011506 69 232 0.0 1.0 0.00 0.62 0.62 100 1017.4
20260901010100 69 246 0.0 2.0 0.00 0.62 0.62 100 1017.5
20260901004605 69 286 0.0 0.0 0.00 0.62 0.62 100 1017.5
20260901003052 69 286 0.0 1.0 0.00 0.62 0.62 100 1017.5
20260901001547 69 188 0.0 2.0 0.00 0.62 0.62 100 1017.3
20260831234538 69 227 0.0 3.0 0.00 0.62 0.62 100 1017.3
20260831233034 69 245 0.0 2.0 0.00 0.62 0.62 100 1017.2
20260831231534 69 241 0.0 2.0 0.00 0.62 0.62 100 1017.3
20260831230034 69 264 0.0 2.0 0.00 0.62 0.62 100 1017.4
20260831224520 69 214 0.0 2.0 0.00 0.62 0.62 100 1017.3
20260831223016 69 109 0.0 3.0 0.01 0.62 0.62 100 1017.5
20260831221511 69 113 0.0 3.0 0.01 0.62 0.62 100 1017.6
20260831220009 69 171 1.0 4.0 0.01 0.62 0.62 100 1017.7
20260831214503 69 145 0.0 3.0 0.02 0.62 0.62 100 1017.8
20260831213101 69 172 0.0 2.0 0.06 0.62 0.62 100 1017.8
20260831211554 69 170 0.0 5.0 0.06 0.61 0.61 100 1017.8
20260831210048 69 145 0.0 3.0 0.07 0.61 0.61 100 1017.9
20260831204544 69 163 0.0 2.0 0.07 0.60 0.60 100 1018.1
20260831203041 69 138 0.0 2.0 0.06 0.56 0.56 100 1018.2
20260831201535 69 109 0.0 2.0 0.08 0.55 0.55 100 1018.3
20260831200035 68 119 0.0 2.0 0.15 0.54 0.54 100 1018.6
20260831194541 69 160 0.0 2.0 0.23 0.53 0.53 100 1018.7
20260831193022 68 248 1.0 2.0 0.23 0.50 0.50 100 1018.7
20260831191520 68 128 1.0 4.0 0.21 0.47 0.47 100 1018.6
20260831190015 69 182 0.0 3.0 0.13 0.38 0.38 100 1018.7
20260831184509 69 229 2.0 4.0 0.10 0.30 0.30 100 1018.9
20260831183003 69 257 1.0 5.0 0.07 0.27 0.27 2 1019.1
20260831181603 69 200 1.0 5.0 0.06 0.26 0.26 4 1019.1
20260831180055 69 248 1.0 2.0 0.06 0.25 0.25 7 1019.1